Miscellaneous Local Product
Issued by NWS Hastings, NE

Home | Current Version | Previous Version | Text Only | Print | Product List | Glossary Off
Versions: 1 2 3 4 5 6 7 8 9 10 11 12 13 14 15 16 17 18 19 20 21 22 23 24 25 26 27 28 29 30 31 32 33 34 35 36 37 38 39 40 41 42 43 44 45 46 47 48 49 50

000
AXUS43 KGID 020302
MISGRI

GID CWA HOURLY WEATHER ROUNDUP
NATIONAL WEATHER SERVICE HASTINGS NE
1000 PM CDT MON SEP 01 2014

NOTE: "FAIR" INDICATES FEW OR NO CLOUDS BELOW 12,000 FEET WITH NO
SIGNIFICANT WEATHER AND/OR OBSTRUCTIONS TO VISIBILITY.

...SOUTH CENTRAL NEBRASKA...

CITY           SKY/WX    TMP DP  RH WIND       PRES   REMARKS
GRAND ISLAND   CLEAR     64  59  83 W3        29.93R
HASTINGS       CLEAR     65  56  72 CALM      29.91R
KEARNEY        CLEAR     63  55  77 CALM      29.92R
ORD            CLOUDY    57  55  93 E5        29.94F
YORK           CLEAR     64 N/A N/A S3        29.90R
AURORA         CLEAR     60  60  98 CALM      29.91R
LEXINGTON      CLEAR     62  58  88 CALM      29.93R
HOLDREGE       CLEAR     61  57  88 CALM      29.92R
HEBRON         CLEAR     61  57  87 CALM      29.89F

...NEBRASKA PANHANDLE...

CITY           SKY/WX    TMP DP  RH WIND       PRES   REMARKS
CHADRON        CLEAR     53  49  86 S5        30.02R
ALLIANCE       PTCLDY    55  49  80 E5        30.05R
SCOTTSBLUFF    CLEAR     58  48  69 CALM      30.06R
SIDNEY         MOCLDY    61  46  57 NE9       30.08R

...WESTERN AND NORTH CENTRAL NEBRASKA...

CITY           SKY/WX    TMP DP  RH WIND       PRES   REMARKS
VALENTINE      PTCLDY    53  52  96 SW6       29.95R
AINSWORTH      MOCLDY    56  54  93 CALM      29.94F
ONEILL         CLOUDY    60  58  95 CALM      29.90F
BROKEN BOW     PTCLDY    58  55  90 CALM      29.97R
IMPERIAL       PTCLDY    63  52  67 E3        29.95R
NORTH PLATTE   MOCLDY    57  52  83 NE12      30.01R
MCCOOK         CLEAR     64  55  72 E3        29.92R

...EASTERN NEBRASKA...

CITY           SKY/WX    TMP DP  RH WIND       PRES   REMARKS
NORFOLK        MOCLDY    68  61  78 S5        29.90R
SO SIOUX CITY  CLEAR     66  63  90 CALM      29.87R
TEKAMAH        CLEAR     67  64  90 CALM      29.87R
COLUMBUS       PTCLDY    45 N/A N/A SW6       29.90R
ALBION         TSTM      61  56  83 W18G33    30.02R
OMAHA EPPLEY   PTCLDY    67  61  81 CALM      29.87F
OFFUTT AFB     PTCLDY    65  65 100 NE2       29.86F
MILLARD        PTCLDY    65  63  93 CALM      29.87S
LINCOLN        CLEAR     66  63  90 NW5       29.89R
NEBRASKA CITY  PTCLDY    65  65 100 N3        29.86F
BEATRICE       CLEAR     63  61  93 CALM      29.88R
FALLS CITY     CLEAR     68  64  87 S7        29.85R

...NORTHERN KANSAS...

CITY           SKY/WX    TMP DP  RH WIND       PRES   REMARKS
GOODLAND       CLEAR     62  53  72 SE6       29.98R
HILL CITY      CLEAR     65  58  78 CALM      29.92R
NORTON         CLEAR     64  52  63 SE5       29.92R
PHILLIPSBURG   CLEAR     64  59  82 E5        29.90S
SMITH CENTER   CLEAR     64  59  82 E8        29.90S
HAYS           CLEAR     68  61  77 NE5       29.90S
RUSSELL        CLEAR     67  63  87 E6        29.88S
CONCORDIA      CLEAR     64  62  93 N6        29.88S
SALINA         PTCLDY    74  67  78 SE5       29.88R
TOPEKA         MOCLDY    72  71  97 SE3       29.88R



USA.gov is the U.S. government's official web portal to all federal, state and local government web resources and services.